Location: Harwich
(41.7160°N, 69.9939°W)
Time: 10:53:51
(UTC+02:00)

A-11 Canister half - Pass Details

Date: 01 March 2024
Orbit: 1513 x 1686 km, 47.2° (Epoch: 24 April)

Event Time Altitude Azimuth Distance (km) Brightness Sun altitude
Exits shadow 07:45:06 47° 55° (NE) 2,109 9.8 -47.5°
Drops below altitude 10° 07:51:40 10° 69° (ENE) 3,888 11.6 -46.7°
Sets 07:54:47 0° 71° (ENE) 4,855 12.3 -46.2°
